Weather in Sherlovaya Gora

Russia / Zabaykalsky Krai     50°31′26″N   116°19′07″E
temp.,
°C
wind,
m/s
gust,
m/s
humid.,
%
clouds,
%
prec.,
mm/h
press.,
hPa
HPBL,
m
20 may, fri
fri2000:00+16ssw115175 0.2 100611
03:00+16w344698 0.2 100565
06:00+14nw365615 0.0 1005118
09:00+19nnw57315 0.0 10061153
12:00+22nw811220 0.0 10052741
15:00+25nw81417100 0.0 10024386
18:00+24nnw7121498 0.0 10004082
21:00+19n46195 0.0 100272
21 may, sat
sat2100:00+15n45238 0.0 100549
03:00+12nne463313 0.0 100778
06:00+10n343682 0.0 100962
09:00+16n462818 0.0 1009854
12:00+20nnw5621100 0.0 10091897
15:00+23n4616100 0.0 10072286
18:00+23n33165 0.0 10052259
21:00+19ese22225 0.0 100611
22 may, sun
sun2200:00+15sse332597 0.0 100624
03:00+14s352662 0.0 100457
06:00+14wsw51230100 0.0 1004322
09:00+15wnw71070100 0.4 10041016
12:00+21nw793811 0.0 10031789
15:00+24nw8102365 0.0 10022574
18:00+24nw7112163 0.0 10013175
21:00+20nnw5103119 0.0 1002211
23 may, mon
mon2300:00+16wnw33408 0.0 100426
03:00+14wnw364567 0.0 100479
06:00+13wnw225120 0.0 100417
09:00+20w35335 0.0 1004660
12:00+24sw8924100 0.0 10011780
15:00+27sw8111890 0.0 9973534
18:00+22wsw71032100 0.9 998942
21:00+20wnw6103394 1.1 1000626
24 may, tue
tue2400:00+14wnw91431100 0.0 10031105
03:00+10nw915544 0.0 10051106
06:00+8nw5116928 0.0 1006993
09:00+9nw91066100 0.0 10061284
12:00+7nnw5685100 0.5 1007966
15:00+8n6879100 1.0 10081022
18:00+9nnw71075100 1.6 1008843
21:00+7n81385100 2.4 1010795